Location: Unspecified
(52.4292°N, 19.3359°E)
Time: 01:03:54
(UTC+02:00)

SR - Pass Details

Date: 05 June 2024
Orbit: 580 x 858 km, 66.7° (Epoch: 12 June)

Event Time Altitude Azimuth Distance (km) Brightness Sun altitude
Rises 22:19:42 0° 322° (NW) 2,886 ? -8.8°
Reaches altitude 10° 22:22:05 10° 329° (NNW) 1,950 ? -9.0°
Maximum altitude 22:26:16 44° 42° (NE) 818 ? -9.3°
Drops below altitude 10° 22:30:19 10° 115° (ESE) 1,896 ? -9.7°
Enters shadow 22:30:35 - 116° (ESE) 2,001 ? -9.7°
Sets 22:32:36 0° 122° (ESE) 2,796 - -9.8°
